Lamar, CO

7:22 AM MDT on March 23, 2017 (GMT -0600)
Lamar Municipal

Weather History for KLAA - February, 2013

Change the Weather History Date:

Monday, February 11, 2013

  Actual Average Record
Temperature  
Mean Temperature 25 °F 32 °F  
Max Temperature 41 °F 49 °F 82 °F (1962)
Min Temperature 9 °F 16 °F -11 °F (1981)
Degree Days  
Heating Degree Days 40 32  
Month to date heating degree days 309 367  
Since 1 July heating degree days 3528 3798  
Cooling Degree Days 0 0  
Month to date cooling degree days 0 0  
Year to date cooling degree days 0 0  
Moisture  
Dew Point 9 °F    
Average Humidity 54    
Maximum Humidity 80    
Minimum Humidity 27    
Precipitation  
Precipitation 0.00 in 0.02 in 1.25 in (1934)
Month to date precipitation T  
Year to date precipitation 0.02  
Sea Level Pressure  
Sea Level Pressure 30.13 in    
Wind  
Wind Speed 6 mph (SE)    
Max Wind Speed 16 mph    
Max Gust Speed 22 mph    
Visibility 10 miles    
Events      
T = Trace of Precipitation, MM = Missing Value Source: NWS Daily Summary

Daily Weather History Graph

Daily Weather History Graph

Search for Another Location

Airport or City:

Trip Planner

Search our weather history database for the weather conditions in past years. The results will help you decide how hot, cold, wet, or windy it might be!

Date:

Astronomy

Feb. 11, 2013 Rise Set
Actual Time 6:45 AM MST 5:25 PM MST
Civil Twilight 6:17 AM MST 5:52 PM MST
Nautical Twilight 5:46 AM MST 6:23 PM MST
Astronomical Twilight 5:16 AM MST 6:54 PM MST
Moon 7:13 AM MST (2/11) 7:21 PM MST (2/11)
Length of Visible Light 11h 34m
Length of Day
10h 40m
Waxing Crescent, 3% of the Moon is Illuminated
Feb 11
Waxing Crescent
Feb 17
First Quarter
Feb 25
Full
Mar 4
Last Quarter
Mar 11
New

Hourly Weather History & Observations

Time (MST) Temp. Windchill Dew Point Humidity Pressure Visibility Wind Dir Wind Speed Gust Speed Precip Events Conditions
12:53 AM 14.0 °F 6.5 °F 6.1 °F 71% 30.15 in 10.0 mi SW 4.6 mph - N/A   Clear
1:53 AM 19.9 °F - 10.0 °F 65% 30.14 in 10.0 mi Calm Calm - N/A   Scattered Clouds
2:53 AM 12.0 °F - 5.0 °F 73% 30.16 in 10.0 mi Calm Calm - N/A   Clear
3:53 AM 10.0 °F - 3.9 °F 76% 30.17 in 10.0 mi Calm Calm - N/A   Clear
4:53 AM 14.0 °F 8.2 °F 8.1 °F 77% 30.17 in 10.0 mi SSW 3.5 mph - N/A   Mostly Cloudy
5:53 AM 14.0 °F 5.1 °F 7.0 °F 74% 30.19 in 10.0 mi SSW 5.8 mph - N/A   Scattered Clouds
6:53 AM 17.1 °F 11.7 °F 9.0 °F 71% 30.22 in 10.0 mi SSW 3.5 mph - N/A   Overcast
7:53 AM 19.9 °F - 10.9 °F 68% 30.22 in 10.0 mi Calm Calm - N/A   Mostly Cloudy
8:53 AM 26.1 °F - 10.9 °F 53% 30.23 in 10.0 mi Calm Calm - N/A   Clear
9:53 AM 30.0 °F 25.2 °F 8.1 °F 40% 30.22 in 10.0 mi Variable 4.6 mph - N/A   Clear
10:53 AM 30.9 °F 25.2 °F 8.1 °F 38% 30.22 in 10.0 mi Variable 5.8 mph - N/A   Overcast
11:53 AM 34.0 °F 27.2 °F 8.1 °F 34% 30.18 in 10.0 mi SSE 8.1 mph - N/A   Overcast
12:53 PM 37.0 °F 28.9 °F 8.1 °F 30% 30.13 in 10.0 mi ESE 12.7 mph 16.1 mph N/A   Partly Cloudy
1:53 PM 37.0 °F 29.8 °F 8.1 °F 30% 30.08 in 10.0 mi ESE 10.4 mph - N/A   Clear
2:53 PM 37.9 °F 30.9 °F 8.1 °F 29% 30.07 in 10.0 mi ESE 10.4 mph - N/A   Clear
3:53 PM 39.0 °F 32.3 °F 9.0 °F 29% 30.05 in 10.0 mi ESE 10.4 mph 20.7 mph N/A   Clear
4:53 PM 39.9 °F 32.9 °F 10.9 °F 31% 30.03 in 10.0 mi SE 11.5 mph - N/A   Clear
5:53 PM 36.0 °F 29.6 °F 10.0 °F 34% 30.06 in 10.0 mi ESE 8.1 mph - N/A   Clear
6:53 PM 33.1 °F 26.1 °F 10.0 °F 38% 30.08 in 10.0 mi ESE 8.1 mph - N/A   Clear
7:53 PM 30.9 °F 24.3 °F 10.0 °F 42% 30.09 in 10.0 mi ESE 6.9 mph - N/A   Clear
8:53 PM 28.0 °F 21.7 °F 10.0 °F 47% 30.09 in 10.0 mi East 5.8 mph - N/A   Mostly Cloudy
9:53 PM 28.0 °F 21.7 °F 10.0 °F 47% 30.06 in 10.0 mi East 5.8 mph - N/A   Clear
10:53 PM 27.0 °F 19.5 °F 10.9 °F 51% 30.07 in 10.0 mi North 6.9 mph - N/A   Clear
11:53 PM 25.0 °F 18.1 °F 10.0 °F 53% 30.06 in 10.0 mi ENE 5.8 mph - N/A   Overcast